Wind_Gust
14 20 23 23 23 23 21 23 24 26 27 30 33 34 32 37 36 31 32 34 27 27 32 35 39 43 38 40 41 42 36 38 44 44 43 43 43 42 43 40 39 37 36 32 32 32 29 34 34 28 29 28 26 25 28 29 30 30 32 30 31 30 29 30 31 31 31 30 28 25 25 24 23 22 20 21 21 20 21 21 22 23 23 21 22 22
17 23 24 22 22 22 20 20 21 24 25 27 29 29 34 31 33 27 25 22 30 37 32 30 34 34 37 39 40 41 43 40 40 43 43 41 41 41 40 41 39 36 32 30 31 29 29 34 33 31 30 28 29 30 29 31 32 30 29 28 30 32 31 30 29 30 28 27 28 28 27 25 24 24 25 23 23 20 20 21 22 24 22 21 21 21
23 24 20 21 14 15 18 20 22 23 25 27 31 29 33 38 35 33 34 30 28 30 36 30 34 33 31 34 35 39 44 45 39 37 39 41 42 41 42 40 41 37 35 34 32 28 32 30 33 33 31 32 30 31 34 32 31 28 30 28 28 30 33 31 30 30 29 25 24 25 26 26 25 24 23 23 21 20 21 21 22 22 23 22 22 21
23 18 14 16 12 15 19 20 20 22 25 27 29 32 34 29 34 38 37 33 30 35 31 28 32 34 29 30 34 36 40 43 38 38 35 31 36 43 39 39 38 38 38 35 35 37 37 33 31 30 32 33 28 29 30 32 32 32 31 29 31 31 30 31 30 26 26 24 23 22 23 23 24 24 22 19 19 20 20 22 22 22 22 21 22 22
26 24 20 15 17 19 22 21 21 24 27 26 28 31 34 32 35 36 33 32 34 36 33 33 38 37 32 34 38 35 35 36 42 44 42 42 34 33 32 36 37 37 36 37 35 34 35 32 33 30 30 33 33 30 31 32 34 30 31 32 32 30 29 28 27 28 26 26 25 25 21 21 21 19 20 21 23 22 22 22 23 23 22 22 22 21
27 24 22 23 20 20 22 25 26 26 29 28 27 29 30 31 32 30 31 36 34 31 30 29 40 41 31 37 39 33 41 40 37 39 42 44 44 39 34 32 35 36 36 36 36 36 34 31 31 29 30 30 32 30 29 30 31 28 31 31 31 30 30 30 29 29 29 29 29 29 28 27 27 25 24 26 25 25 25 25 22 22 23 23 21 22
24 23 22 19 21 22 24 26 23 24 30 29 29 25 31 33 34 31 31 31 39 40 27 32 39 40 30 37 38 39 36 40 43 43 43 42 42 40 35 31 30 33 36 37 36 36 34 32 30 30 28 29 31 29 28 30 30 30 30 30 31 30 31 30 29 31 29 29 29 29 29 28 28 27 25 21 22 22 22 22 21 22 21 22 22 20
18 17 18 19 22 25 25 28 24 25 31 35 23 24 23 22 27 31 33 34 37 28 33 33 39 39 38 34 33 37 39 40 40 46 47 47 45 42 37 36 32 34 32 34 38 36 32 31 31 34 30 30 30 27 28 29 30 31 30 28 30 30 29 30 30 32 32 29 29 29 27 28 27 27 24 23 22 20 21 22 22 21 22 22 22 22
13 19 21 21 21 26 26 23 21 22 33 31 23 18 22 22 23 25 31 35 36 35 40 38 35 49 39 32 30 33 39 43 43 42 47 50 47 46 44 40 37 35 33 33 33 36 35 31 31 29 33 30 29 31 29 28 29 30 29 28 28 30 30 29 30 32 32 30 29 30 30 28 27 27 26 24 23 23 22 21 23 23 22 22 23 23
25 20 21 24 28 28 22 23 22 22 31 24 29 27 28 26 28 29 32 32 33 38 39 36 37 47 39 31 32 29 34 39 44 44 42 45 49 47 46 43 39 34 34 37 36 35 33 33 32 28 28 28 29 29 27 26 27 28 27 28 31 31 30 31 32 33 31 29 31 30 28 28 28 27 26 25 24 24 24 25 24 23 24 24 24 23
28 25 24 29 28 25 23 23 22 23 25 23 25 30 33 30 31 31 32 34 34 41 39 34 34 40 46 34 34 37 36 31 28 34 39 39 39 42 44 42 43 41 34 35 37 35 33 30 35 31 29 29 25 24 27 26 26 27 29 29 31 30 28 26 31 31 33 31 30 29 29 29 28 28 27 26 25 25 24 27 27 24 25 24 24 24
22 23 25 28 25 28 25 30 25 24 24 25 33 30 28 30 30 35 34 33 40 40 34 34 37 35 48 34 35 33 31 30 33 29 28 34 38 38 37 42 44 43 38 36 36 35 32 33 31 31 30 31 28 26 29 28 28 28 29 31 31 28 28 27 30 31 34 33 32 29 28 31 31 30 30 29 28 28 26 26 27 26 25 24 24 24
26 26 20 22 20 22 25 26 26 25 25 29 29 28 30 31 32 36 36 39 39 42 30 31 34 42 48 36 29 30 28 30 29 30 31 29 30 33 35 35 38 40 39 37 36 33 31 31 30 29 31 30 30 30 29 29 29 30 30 32 32 32 30 32 32 33 34 34 31 33 32 29 31 32 31 31 29 27 28 27 26 26 26 26 26 27
23 19 15 14 16 21 23 29 25 27 28 29 33 31 30 34 31 30 32 34 34 35 33 33 30 45 31 37 37 36 30 26 26 26 27 31 30 28 31 34 34 36 38 40 35 35 32 30 29 33 33 34 30 28 30 32 27 29 30 29 32 32 32 29 30 33 33 34 33 30 31 32 31 31 32 32 32 30 30 28 27 28 27 27 26 26
25 20 17 15 15 15 24 29 24 25 23 30 27 33 32 34 37 30 34 33 31 32 33 34 43 40 34 32 29 37 38 34 32 32 28 27 27 24 27 29 34 35 33 40 35 37 33 27 27 30 34 33 31 27 32 32 28 27 28 30 31 32 31 31 33 34 35 36 32 31 31 31 30 32 32 32 29 31 30 29 28 29 28 27 27 27
22 28 18 17 14 13 19 17 22 23 28 30 27 29 33 38 32 39 31 30 26 28 31 32 41 29 38 23 25 27 30 30 35 35 33 33 32 31 30 29 29 29 37 34 29 29 34 28 23 25 29 31 28 26 28 30 28 28 30 30 33 35 34 34 34 32 34 34 33 31 30 32 30 29 31 30 28 31 30 30 30 30 28 28 26 26
22 24 18 18 19 20 19 20 23 20 24 18 28 34 35 25 31 31 31 35 30 29 35 28 30 34 28 32 30 27 25 24 25 30 37 37 34 32 32 31 30 31 30 25 26 25 25 31 23 26 27 31 32 30 31 30 30 29 30 31 33 33 31 32 33 34 32 33 32 32 31 31 31 31 30 32 29 30 30 29 29 30 29 26 26 25
20 32 30 31 26 20 20 21 23 24 28 33 28 25 24 27 27 28 31 25 27 30 31 27 29 28 28 34 30 34 37 34 30 27 26 29 33 35 34 31 31 31 30 29 28 27 26 24 24 27 29 29 32 33 32 31 30 31 31 30 33 33 34 32 33 35 33 34 34 33 33 32 32 31 31 30 32 32 30 31 30 28 30 30 28 25
15 31 23 22 20 15 13 18 26 25 27 32 29 18 24 25 29 29 29 26 26 29 32 32 32 37 34 32 26 25 29 33 37 35 33 30 29 27 27 30 31 31 31 32 31 31 30 26 24 25 26 32 34 32 31 34 33 31 30 31 30 32 34 33 32 31 33 33 33 35 33 33 33 30 30 30 30 30 31 32 32 30 31 29 27 27
12 17 25 17 14 17 18 22 25 20 23 26 24 30 22 26 26 26 32 28 30 27 25 29 33 38 34 36 27 29 26 23 25 34 35 33 30 30 29 30 30 30 29 31 33 33 32 28 26 26 25 28 32 31 30 30 31 32 32 30 29 29 28 29 31 32 35 36 35 33 33 32 34 33 31 31 32 34 32 33 33 30 28 30 30 30
16 14 21 17 13 13 25 21 24 20 19 23 25 27 26 28 20 25 23 31 31 32 30 30 30 31 29 28 30 31 29 26 23 25 23 26 30 29 27 28 28 29 29 30 31 32 31 28 26 26 24 26 26 30 29 29 32 32 29 29 31 31 31 32 33 33 34 34 35 32 33 33 34 32 33 30 32 32 32 30 30 34 30 29 31 30
12 18 20 27 27 27 28 23 20 22 21 22 23 24 25 25 27 26 29 26 34 34 32 29 33 29 24 23 24 28 29 29 28 26 28 27 26 24 25 23 24 24 22 25 28 29 30 30 29 27 25 24 26 29 32 32 30 31 32 32 30 29 31 33 35 34 33 33 33 32 33 31 31 33 32 32 34 32 32 32 35 31 28 28 30 30
17 13 20 29 29 30 28 26 22 21 23 26 27 26 23 24 25 26 26 26 29 35 29 30 29 32 29 28 23 20 22 23 23 26 31 31 28 26 25 24 23 23 24 24 25 29 30 27 27 29 26 25 24 25 29 31 30 31 29 30 30 31 30 32 34 33 32 31 31 32 32 33 31 34 33 33 33 32 33 32 32 31 31 30 31 30
13 14 19 28 28 31 33 29 26 24 23 25 26 27 27 28 27 28 28 20 24 23 29 29 33 39 26 24 26 25 21 22 21 20 22 19 20 20 18 16 18 17 19 19 19 18 18 20 25 28 28 29 28 24 25 30 31 28 29 31 33 33 31 32 31 31 32 32 31 31 31 34 34 34 35 35 34 33 33 32 30 31 32 29 31 32
14 10 12 27 33 28 14 13 16 17 24 28 25 25 25 28 25 25 27 26 30 26 25 25 32 32 17 17 20 21 21 21 21 23 22 21 19 19 20 20 21 20 19 21 21 20 21 22 23 25 26 27 28 27 24 28 31 30 32 31 30 31 32 31 29 31 32 31 32 32 35 34 33 32 34 36 36 32 32 32 31 28 31 30 30 32
16 16 13 21 24 25 27 22 13 14 21 24 23 26 25 27 27 26 27 26 31 26 27 33 36 30 24 21 22 23 21 22 22 23 23 21 20 20 21 23 20 18 21 22 22 23 23 25 26 26 23 27 29 29 27 27 30 32 31 32 28 28 30 32 32 32 32 32 33 34 35 35 34 35 35 34 31 30 31 32 30 30 30 33 32 31
13 12 18 23 24 23 25 29 25 24 25 28 21 24 26 26 27 27 28 29 33 25 30 31 32 30 28 24 23 23 28 27 24 22 23 21 19 19 20 20 19 19 18 20 22 23 22 22 24 25 25 26 26 26 27 29 30 31 32 30 31 30 32 31 32 33 33 32 32 34 34 36 37 37 34 32 31 28 30 31 32 32 33 32 32 31
17 18 17 20 24 29 28 29 32 29 32 30 28 26 25 26 27 28 32 37 25 26 32 29 24 29 28 24 24 26 26 29 27 24 25 25 20 20 22 26 23 28 25 23 22 25 25 23 23 23 24 25 28 29 30 32 33 32 33 33 31 31 31 32 31 32 32 32 32 34 36 37 34 33 33 32 32 30 30 31 31 32 31 29 31 30
18 21 20 17 23 23 29 29 30 32 28 30 28 27 27 26 29 33 35 33 29 31 32 21 20 24 25 24 23 24 25 24 25 23 24 24 26 25 24 27 30 28 26 24 23 24 22 22 22 22 24 27 26 28 30 33 33 30 32 34 33 31 33 34 32 33 34 33 33 34 33 33 32 32 31 32 32 32 30 31 32 30 30 29 30 28
14 21 23 22 25 22 22 27 26 28 29 28 27 27 27 27 29 32 33 31 34 33 34 34 32 34 32 30 27 27 23 25 25 25 27 29 29 26 23 28 30 29 26 25 25 23 24 24 25 25 23 25 29 30 33 33 33 34 33 36 35 33 35 34 32 33 34 34 34 34 34 34 32 33 33 33 34 32 32 31 30 29 29 31 31 28
15 20 15 26 28 26 18 19 22 23 23 28 25 25 26 26 28 29 31 30 31 35 34 34 35 39 34 28 29 27 28 29 29 28 31 28 27 27 25 27 32 30 29 27 25 24 21 21 23 22 24 26 30 32 33 32 31 32 33 33 34 34 33 34 34 32 32 34 33 33 33 35 33 33 33 34 33 29 31 32 31 30 32 31 28 27
13 17 18 25 26 28 16 14 12 20 22 23 24 23 24 25 28 28 36 29 29 32 30 31 35 38 28 21 21 27 29 30 29 28 26 28 27 28 26 28 30 30 30 28 27 25 24 23 24 24 24 25 28 31 32 33 34 34 35 34 36 35 33 36 36 33 33 33 33 33 34 34 33 32 34 34 35 33 33 30 29 32 31 31 29 26
15 19 25 26 26 28 25 21 23 18 17 18 23 26 25 24 25 28 31 28 30 28 32 31 36 29 26 24 26 25 23 25 26 27 26 26 26 29 30 30 31 31 30 30 27 26 26 26 25 25 25 25 28 32 32 33 34 35 35 35 33 35 35 36 35 33 33 33 32 33 33 32 32 34 34 35 35 30 31 31 32 31 31 31 28 25
20 22 26 20 20 32 26 26 25 16 18 22 17 16 18 19 23 24 28 29 29 30 38 35 37 35 34 33 32 26 25 28 29 29 26 29 29 30 29 30 34 32 30 28 29 29 27 28 26 25 24 24 26 29 31 32 34 33 34 35 34 36 37 38 38 33 33 32 32 33 33 33 32 33 34 34 32 30 32 31 33 29 31 27 25 29
25 26 25 20 19 30 26 22 20 17 17 13 19 15 15 19 25 24 25 30 33 34 36 39 41 39 39 37 30 30 31 29 26 28 28 29 33 33 31 30 28 27 26 26 28 29 28 29 29 26 26 27 26 25 28 31 32 31 34 35 38 37 40 42 41 35 32 32 32 32 32 33 34 34 34 33 32 31 33 32 31 30 28 29 30 31
20 23 25 21 23 25 24 25 26 23 5 10 12 12 16 20 19 23 24 30 34 35 34 36 37 38 37 34 29 25 25 27 30 30 29 29 34 35 30 28 26 24 26 25 27 29 28 32 32 27 27 25 25 26 29 30 30 32 32 35 37 36 38 41 43 36 32 32 33 33 33 34 33 32 32 33 32 32 34 34 34 32 26 24 28 28
18 23 20 23 13 24 25 26 21 11 8 7 13 19 27 22 22 18 21 31 24 25 24 26 26 26 26 25 25 26 25 27 29 30 28 31 29 27 26 26 29 29 27 27 27 28 29 30 31 27 26 27 27 28 27 28 29 31 33 34 36 37 37 37 37 35 33 34 35 34 33 33 34 34 34 35 35 36 36 32 32 29 27 27 30 30
18 18 15 16 16 16 28 28 28 23 34 30 25 30 23 23 21 23 21 30 21 15 20 24 23 24 23 25 27 28 25 28 30 29 18 19 22 25 26 27 27 28 27 25 25 25 25 25 27 27 28 28 29 29 28 27 29 31 32 35 35 35 35 36 36 35 35 35 34 35 34 34 35 35 36 38 38 39 34 33 32 36 30 34 34 34
22 19 19 18 24 28 30 29 27 27 23 14 24 35 36 29 23 21 14 19 14 29 30 27 21 20 21 23 23 22 24 26 27 24 18 21 25 26 28 26 26 25 25 26 24 27 27 27 30 32 32 32 31 31 29 30 29 33 34 34 36 36 37 37 37 35 35 35 34 35 35 36 36 36 36 37 37 38 37 36 37 35 33 35 32 32
29 23 22 23 22 27 27 29 26 20 31 22 32 37 39 33 24 15 18 24 32 37 33 28 22 22 21 20 21 22 26 26 24 22 24 27 28 25 26 26 25 24 25 25 26 23 25 27 31 32 32 32 30 31 31 30 32 30 33 35 36 37 38 37 37 35 34 33 34 33 34 34 34 35 35 35 35 36 38 33 31 35 33 31 31 30
35 26 23 28 28 26 22 26 18 14 13 23 31 36 31 35 23 20 26 28 35 32 28 26 20 18 19 19 16 17 16 21 24 28 29 28 27 26 22 22 22 23 22 24 25 20 25 26 30 33 33 34 33 32 31 31 32 33 32 32 34 36 36 35 35 37 34 32 33 33 34 32 33 34 34 33 35 34 32 32 34 31 27 27 27 25
27 24 20 23 29 30 29 31 30 21 15 31 32 31 27 28 29 32 29 29 30 30 29 26 26 25 21 19 18 18 20 20 21 25 27 26 24 23 23 23 22 21 20 20 21 22 22 26 27 30 31 30 33 33 32 32 33 33 32 33 33 31 34 34 34 34 35 32 31 33 33 32 31 33 32 31 32 32 31 30 31 31 30 30 29 27
29 30 30 28 31 24 29 30 25 30 25 34 36 17 19 34 28 24 30 26 31 29 29 29 27 27 25 24 22 22 23 22 21 23 26 26 25 24 23 22 20 21 23 24 26 25 24 24 23 23 23 25 25 28 29 31 33 33 32 35 31 32 34 33 32 35 34 31 30 30 31 29 28 31 32 34 36 35 37 38 36 33 33 32 29 29
28 23 22 20 26 26 26 33 30 31 30 31 31 26 33 29 29 28 29 30 30 30 30 28 30 32 33 31 28 26 23 22 22 23 26 25 27 24 21 20 20 21 21 20 21 21 23 23 18 16 17 22 22 28 31 32 35 32 32 34 32 30 30 32 34 32 30 26 27 30 30 29 30 32 31 33 35 36 36 35 35 33 33 33 33 32
26 20 17 21 22 21 22 26 27 30 29 23 22 22 27 30 30 30 29 29 30 31 31 32 34 34 31 30 29 27 23 22 22 22 23 23 22 23 20 22 24 25 22 20 18 20 21 20 15 15 15 18 23 27 25 23 27 26 31 30 28 29 32 32 29 29 27 26 26 28 28 28 29 29 29 27 30 31 31 29 30 32 30 29 31 31
17 20 20 22 22 27 16 21 22 28 33 33 23 22 26 28 25 28 28 30 30 29 29 32 32 34 34 33 33 28 26 22 22 21 18 16 17 20 19 21 21 20 17 16 19 21 24 22 19 17 19 18 18 21 22 17 21 23 27 24 24 26 30 28 28 28 28 27 27 28 29 28 27 27 26 26 26 27 26 28 29 29 27 24 24 22
19 25 25 25 26 25 23 29 30 34 32 31 29 29 28 25 29 26 27 28 27 29 30 30 34 32 34 34 34 31 27 27 26 24 19 17 18 19 19 17 19 16 19 23 23 23 25 23 23 22 17 17 14 17 20 19 18 18 18 23 21 21 22 25 25 27 26 28 29 27 26 25 26 26 26 26 25 25 20 18 20 23 18 20 21 19
17 22 23 23 25 22 26 29 32 33 32 22 29 29 32 30 31 29 27 25 24 24 27 29 32 31 32 35 34 30 29 29 30 29 23 20 19 18 19 18 19 18 20 23 26 23 20 24 23 23 20 20 18 17 18 17 18 17 15 14 15 18 20 19 18 21 19 22 22 24 25 23 12 20 24 22 18 19 18 19 21 24 24 26 27 27
22 21 17 24 25 25 20 22 34 35 22 24 33 33 35 31 29 31 30 30 29 27 26 29 26 27 30 31 31 32 31 32 34 28 23 23 24 22 23 22 22 23 23 24 24 24 27 24 26 24 20 18 19 19 18 16 18 23 23 21 16 14 17 18 16 18 17 17 17 19 17 19 20 22 20 20 19 20 22 24 25 25 25 28 31 33
19 20 22 20 21 24 29 34 34 33 32 37 33 36 35 31 30 31 31 31 33 30 26 25 24 24 26 26 28 31 31 29 34 29 26 25 23 23 25 27 28 27 28 22 24 27 26 25 26 25 26 24 22 23 23 23 21 20 19 19 20 19 14 14 13 12 13 14 15 15 14 15 16 18 17 18 21 20 19 10 13 17 29 30 18 15
14 15 20 18 17 24 29 30 30 28 29 27 32 33 31 29 30 30 30 31 34 33 27 24 23 23 26 27 26 28 30 30 31 30 29 24 25 26 29 29 31 33 31 28 26 28 27 27 26 27 25 25 23 26 24 23 23 23 22 21 18 17 17 17 18 18 16 15 16 16 13 15 15 16 17 19 19 19 18 19 10 13 15 13 10 13
Wind_Speed
2 7 8 8 9 11 11 11 12 14 15 16 17 20 17 16 19 18 19 21 10 10 17 20 23 25 23 24 25 26 23 21 27 26 25 26 24 22 23 23 23 21 18 15 16 15 15 14 8 9 10 13 15 15 17 18 18 18 17 17 17 15 16 15 15 15 14 14 13 12 12 11 10 10 10 9 9 8 8 10 11 13 10 11 11 11
5 9 10 12 12 12 11 11 12 13 12 14 16 16 14 17 15 14 12 12 17 17 17 17 20 20 23 24 23 25 27 25 23 27 26 26 25 21 24 24 23 20 12 16 16 16 16 14 13 11 9 15 17 15 17 19 19 18 17 17 17 16 16 16 15 14 13 13 13 13 12 11 10 10 10 10 9 9 8 10 11 11 11 11 11 10
9 10 7 11 5 4 8 10 12 12 14 14 14 13 15 15 18 19 19 17 15 14 14 16 19 18 19 19 21 22 25 24 21 19 22 22 24 23 24 24 25 22 20 21 18 17 16 15 12 11 13 16 17 19 19 19 20 18 16 15 16 16 17 16 15 14 12 12 12 12 12 12 11 11 11 10 10 9 9 10 11 11 11 11 11 11
9 7 4 7 4 5 9 11 11 12 12 12 12 14 15 14 16 16 19 21 18 14 15 17 18 16 17 18 20 21 21 23 23 24 22 18 19 26 24 23 22 24 19 21 20 17 17 16 13 10 9 15 14 15 16 18 20 15 15 17 17 16 16 15 14 13 13 13 12 13 13 13 11 10 10 9 9 10 10 11 11 11 11 12 11 12
11 13 11 6 8 10 12 12 12 11 11 13 15 14 14 18 19 18 14 16 20 22 20 19 17 15 16 17 16 17 21 21 24 28 23 20 20 15 19 22 23 22 20 21 22 22 18 14 15 16 15 15 16 17 18 19 17 13 18 17 17 16 14 13 15 15 14 13 13 11 11 11 11 10 9 7 8 9 11 10 11 11 12 12 11 11
14 13 10 13 11 10 11 11 13 12 12 12 15 16 18 19 20 18 19 20 13 13 14 17 14 15 15 18 18 16 18 21 20 24 27 25 26 24 20 20 21 22 20 22 20 19 19 16 16 16 14 16 17 16 16 17 17 17 17 18 17 15 13 14 16 16 14 13 14 14 13 13 11 11 10 10 10 12 12 11 11 12 12 12 11 10
10 11 12 9 9 11 12 13 13 13 13 13 12 13 17 20 21 20 19 15 17 16 11 16 17 13 13 19 18 17 18 24 21 18 19 21 25 25 19 16 16 18 20 22 21 22 21 15 15 13 11 11 17 16 16 17 18 18 18 18 18 16 14 14 16 18 13 14 13 15 15 15 14 12 10 9 10 9 10 10 11 11 11 12 11 10
4 8 8 8 10 12 12 12 11 13 13 13 12 14 14 13 16 19 20 18 14 14 16 19 15 15 14 15 18 21 21 21 23 23 20 19 20 18 17 17 17 16 16 15 20 20 19 18 17 17 17 17 16 14 16 17 17 19 18 18 16 13 14 14 16 19 16 15 14 14 14 13 14 12 12 12 11 11 10 11 11 10 10 11 11 11
6 8 9 11 10 10 10 11 11 11 13 11 14 11 12 11 12 13 14 16 16 17 16 17 20 18 14 14 17 19 23 26 26 24 25 25 25 23 21 21 22 21 18 18 17 18 20 16 17 16 16 15 15 14 15 16 17 18 18 17 16 14 14 14 18 16 16 14 15 15 13 13 12 14 12 12 11 10 10 11 10 10 10 10 11 11
10 10 11 11 10 10 11 12 12 13 13 11 14 16 15 15 16 16 14 14 15 17 18 18 19 17 16 13 11 14 19 21 24 26 25 28 31 28 23 24 22 21 21 22 22 19 18 17 16 16 14 13 10 15 15 15 15 16 16 17 19 18 15 15 18 16 17 16 15 16 15 15 14 13 12 12 11 10 10 11 11 11 10 10 9 11
14 11 9 9 11 11 10 11 11 13 14 13 13 14 16 15 13 14 14 14 13 16 18 21 21 19 16 15 14 15 14 13 13 17 21 23 24 27 27 26 23 23 19 19 22 22 19 18 12 11 14 12 14 11 15 15 15 15 15 17 20 19 15 15 15 16 16 16 15 15 16 17 16 17 15 14 13 12 12 12 12 11 11 10 11 11
12 10 10 9 12 9 10 14 14 14 13 12 9 12 10 12 13 15 14 15 14 15 18 21 21 22 20 14 15 17 18 17 14 16 17 21 24 22 22 24 27 26 23 19 19 21 20 21 17 11 11 11 7 7 13 15 16 16 16 18 19 17 14 14 15 16 14 15 15 15 16 17 16 17 15 16 16 15 14 13 12 11 11 11 10 10
11 11 4 9 8 12 10 11 10 11 11 11 12 11 11 10 9 12 12 14 15 15 14 18 20 19 21 16 14 17 17 18 17 15 16 17 18 20 20 22 22 22 24 21 17 17 18 18 16 13 11 10 8 7 12 16 16 16 17 21 20 20 18 16 17 16 16 16 15 16 17 17 15 16 16 17 16 15 13 12 13 12 12 12 12 12
9 7 6 4 5 8 11 10 7 9 8 11 12 10 10 12 11 13 13 11 13 16 19 17 19 18 14 18 23 21 17 15 15 15 15 18 18 17 18 17 18 20 22 23 20 17 17 16 15 15 14 12 10 11 12 19 16 16 16 18 20 20 19 18 17 16 16 17 16 16 16 16 16 15 15 15 15 15 13 13 13 13 13 13 13 12
10 6 3 4 2 4 9 9 10 11 10 10 11 12 11 11 10 11 12 12 13 12 14 21 18 12 16 12 17 23 23 20 17 14 11 13 12 14 16 17 20 18 19 22 20 17 17 16 17 14 13 12 14 15 16 18 15 15 15 16 18 19 19 18 17 16 17 16 17 17 15 15 15 15 13 14 14 15 15 15 15 13 13 12 12 13
12 11 5 4 4 4 9 8 9 11 13 12 11 10 13 14 10 14 12 12 9 8 11 11 12 13 15 12 12 13 18 19 19 20 15 15 12 9 9 10 11 15 21 19 17 17 21 18 14 13 11 8 11 16 16 18 15 15 15 17 18 20 19 18 17 17 18 17 16 16 15 16 15 14 13 12 13 13 14 15 15 13 12 11 13 13
8 7 7 6 10 11 8 9 11 7 8 1 7 12 12 7 10 10 12 17 17 11 13 9 11 13 12 15 17 15 14 13 14 18 22 21 19 15 13 13 13 12 12 14 16 14 15 20 15 12 14 14 12 10 14 17 15 16 16 16 18 18 17 19 18 17 17 18 16 16 16 15 15 16 17 15 15 16 15 15 14 14 14 14 13 12
8 13 18 15 14 9 9 11 13 14 12 12 10 8 7 8 9 5 10 6 8 12 10 11 14 11 11 10 14 20 17 16 17 14 15 19 21 21 19 17 17 16 14 11 11 14 15 14 13 13 14 14 13 19 20 18 15 15 15 17 18 18 18 17 16 16 15 16 16 16 17 16 16 16 17 16 16 15 15 15 14 13 14 15 13 12
6 12 10 12 11 7 3 8 14 14 16 14 12 7 9 4 7 10 8 10 9 11 10 13 16 15 11 9 9 14 17 19 21 20 19 16 15 15 16 19 19 19 17 17 17 16 16 14 13 14 16 20 20 22 20 17 16 15 15 16 17 18 18 17 14 14 12 14 13 14 16 19 18 16 15 14 16 15 15 17 16 15 13 13 14 13
4 5 8 6 6 9 8 8 10 8 11 15 12 13 9 9 7 7 7 10 10 11 9 12 17 13 13 13 14 14 15 14 15 20 22 20 18 16 15 15 16 17 16 17 18 18 18 17 15 15 15 17 21 21 16 15 15 17 16 16 16 15 15 16 16 14 14 14 15 17 18 19 19 19 17 14 14 16 18 18 18 16 14 13 13 14
5 3 9 6 6 5 9 4 8 7 6 7 9 10 8 9 6 6 6 9 9 9 10 10 11 10 11 11 16 18 17 13 10 8 10 14 18 18 16 15 16 17 16 16 17 18 18 15 15 16 15 15 15 15 14 14 15 15 15 16 16 15 15 16 16 16 15 15 16 18 20 19 19 18 18 15 15 15 16 15 15 17 15 14 15 16
3 4 8 12 11 10 13 11 10 11 10 8 8 9 9 9 9 10 11 8 11 10 10 9 11 11 11 8 11 15 16 16 16 14 12 13 13 12 14 14 12 12 14 16 17 16 16 18 18 16 14 13 14 15 16 16 14 16 16 15 15 14 13 16 17 17 17 16 15 19 19 19 16 17 17 15 15 14 16 15 17 16 15 16 16 17
5 4 8 12 12 13 16 16 14 12 12 13 12 11 10 9 9 7 10 9 10 12 12 11 11 13 12 15 12 10 11 11 9 9 15 18 18 16 14 14 14 14 14 13 14 16 17 17 17 17 16 15 14 14 15 16 16 14 14 15 15 16 15 16 17 17 16 16 18 19 19 17 17 18 18 18 16 17 17 14 16 16 16 16 14 16
8 3 7 12 14 16 19 17 15 14 13 13 12 13 12 11 10 10 9 7 8 9 10 10 11 13 11 13 13 13 12 12 10 11 12 9 8 10 10 6 7 6 6 7 8 7 8 12 15 16 17 17 15 14 14 14 16 13 11 14 15 17 18 18 16 15 16 16 17 19 19 17 17 19 19 18 16 18 19 15 16 17 18 16 13 16
3 2 3 11 12 10 5 2 5 6 8 9 9 9 12 13 14 11 10 8 9 12 13 10 12 10 7 6 9 11 11 10 10 12 12 11 10 10 10 10 11 11 10 12 12 10 11 11 11 12 12 13 14 14 12 13 14 16 12 14 14 15 18 17 16 17 18 18 19 18 17 16 16 17 19 19 16 18 19 17 15 15 18 16 15 16
5 7 4 8 10 11 10 7 4 4 5 8 10 12 13 14 14 12 10 9 12 12 16 12 12 13 8 7 12 13 10 10 10 12 13 11 9 10 10 12 11 10 11 12 12 13 14 14 14 13 14 14 14 14 14 14 14 16 16 15 14 16 16 17 17 18 18 18 18 18 19 19 18 18 20 20 18 15 15 15 15 16 16 18 17 16
4 4 8 11 10 10 12 13 13 12 11 11 12 11 12 13 13 14 12 12 12 9 12 14 16 14 14 12 13 12 11 12 12 13 12 11 10 9 11 11 8 8 9 11 14 13 13 13 15 15 15 15 14 14 13 14 16 17 15 12 12 12 15 17 18 19 18 18 19 18 19 19 19 18 18 18 18 14 15 17 16 17 18 17 16 16
6 7 9 13 16 17 17 18 18 15 17 17 16 16 13 12 12 13 12 14 11 11 13 11 13 14 13 13 12 12 13 13 13 12 13 13 10 9 6 11 15 11 12 11 13 15 15 14 13 14 15 15 16 15 15 15 14 15 16 15 14 14 16 16 16 18 18 18 18 18 19 19 18 18 17 17 18 16 15 16 15 16 16 16 16 16
7 8 12 9 12 14 19 19 19 15 16 17 17 15 16 14 13 15 17 18 17 13 14 12 12 13 11 13 11 11 13 13 10 12 12 11 11 9 9 12 13 13 11 13 12 12 13 13 14 14 14 15 16 17 18 17 16 13 17 18 16 13 13 16 17 18 18 18 18 18 18 18 18 18 18 18 18 17 16 16 17 17 16 14 15 12
4 9 13 14 14 13 13 17 16 18 16 15 15 15 15 17 15 16 17 17 18 19 20 20 20 21 18 15 12 15 13 12 13 8 8 13 12 8 9 12 12 13 12 11 13 13 15 14 13 13 14 15 17 18 19 18 18 18 16 17 15 13 13 15 18 19 19 19 19 18 19 19 17 17 18 18 19 18 17 16 15 15 16 15 16 15
2 6 7 14 13 14 8 8 11 13 13 15 15 14 15 16 15 15 16 16 18 19 20 21 22 21 16 15 17 13 13 13 13 14 12 13 12 9 10 11 13 13 13 13 13 14 13 12 13 13 12 14 16 18 18 19 18 18 18 16 16 18 17 16 20 18 18 19 19 19 18 17 17 17 18 18 18 15 16 18 14 14 18 17 16 14
5 6 9 11 9 13 5 7 6 10 11 13 14 11 11 13 13 13 13 13 14 16 17 17 17 16 14 11 9 10 13 14 11 9 7 9 10 12 12 11 12 13 14 16 14 12 13 13 12 12 12 12 14 16 18 17 18 18 18 18 20 18 16 16 19 19 18 19 19 19 19 17 18 18 17 17 19 17 17 17 14 14 15 16 17 14
5 7 10 11 12 11 14 13 14 11 8 6 4 10 12 10 12 14 16 17 16 13 15 14 14 12 13 10 11 15 13 11 10 9 12 10 10 12 14 15 14 14 13 16 16 14 14 15 12 10 10 11 12 14 17 18 18 18 18 19 18 18 18 20 20 19 18 19 18 18 17 18 18 18 17 18 19 17 15 18 14 13 12 16 15 12
10 11 11 9 6 14 16 17 14 6 5 7 6 9 10 10 14 15 13 13 14 10 12 13 17 19 20 19 19 16 13 10 10 6 6 8 11 13 15 16 16 14 13 13 15 14 13 14 14 9 9 11 12 13 15 17 18 17 17 16 17 19 18 20 21 19 19 18 18 17 18 18 17 17 16 17 17 16 15 18 14 13 13 12 12 13
12 12 10 8 6 11 14 11 5 6 5 4 9 8 9 12 16 16 16 17 15 15 18 22 22 22 24 22 18 14 18 17 12 13 13 9 10 12 14 16 17 13 12 13 13 12 14 16 18 16 12 12 12 13 14 15 17 17 18 18 19 19 20 19 20 21 18 18 18 18 18 18 17 17 17 18 18 18 19 17 13 13 11 12 14 17
5 7 8 7 8 10 9 9 7 7 0 4 6 6 8 12 11 15 14 11 12 12 13 17 20 23 23 21 18 12 13 13 11 13 16 15 12 13 14 14 14 9 11 13 12 10 13 17 20 17 13 11 12 13 14 15 16 18 18 20 20 19 20 18 23 23 19 18 18 18 18 18 18 17 18 18 18 17 18 15 14 15 14 12 14 15
7 7 4 8 5 9 10 9 6 3 2 2 3 8 12 10 11 10 8 9 9 13 11 11 13 12 15 14 14 13 14 14 15 13 14 11 15 16 14 11 10 12 13 14 15 14 13 16 19 17 13 11 12 14 15 16 16 17 18 19 19 21 21 22 23 20 18 18 18 19 19 18 18 17 17 19 20 19 18 18 19 14 13 13 13 14
8 6 3 5 3 5 10 10 6 8 13 13 15 18 14 12 11 12 4 7 7 9 12 15 14 12 11 12 13 13 12 12 13 13 3 6 11 8 12 14 13 12 12 14 15 14 14 15 15 14 12 13 14 15 15 16 15 17 18 19 20 20 20 20 20 19 18 18 19 19 19 18 18 18 18 19 22 22 19 14 10 10 13 16 17 15
12 5 4 4 6 8 10 9 8 8 3 5 14 20 23 17 15 7 5 5 5 18 19 17 14 10 10 11 12 11 8 10 11 8 4 8 9 10 12 13 14 14 12 12 14 14 13 13 14 14 14 15 16 16 17 18 18 18 19 19 20 20 20 20 20 19 19 19 18 18 18 18 18 18 20 21 21 18 16 14 16 15 12 13 14 11
12 8 8 9 8 9 10 10 9 3 5 12 19 21 23 20 16 7 5 8 17 20 17 17 13 9 10 10 8 7 6 9 10 9 10 14 14 15 13 14 13 13 12 12 12 10 12 15 16 15 15 15 15 14 17 18 17 18 19 20 20 20 21 20 20 19 19 18 18 17 17 17 18 18 19 20 16 13 14 13 14 14 13 12 13 12
11 8 8 12 11 11 13 8 5 1 1 11 16 22 19 22 10 6 11 9 20 18 14 15 12 10 10 11 7 6 5 7 10 15 16 16 15 13 11 10 13 12 11 10 10 12 12 12 13 13 13 12 13 15 17 18 17 19 19 18 19 21 20 19 19 19 18 18 17 18 19 17 18 18 16 15 12 12 14 15 15 13 12 13 13 11
10 9 7 9 11 11 11 11 9 4 4 18 16 15 14 12 9 17 11 13 17 18 18 16 16 16 14 10 8 9 9 8 11 12 14 14 13 12 11 10 11 11 11 10 10 10 10 11 12 13 11 10 13 16 18 18 18 19 19 18 20 20 18 19 19 19 19 19 18 17 17 16 16 15 13 13 14 14 15 15 14 12 11 9 9 10
10 7 9 9 10 7 8 11 9 8 5 18 22 6 10 13 13 11 13 15 18 18 18 18 18 17 15 14 13 11 11 11 11 12 15 14 12 10 11 11 9 9 10 10 11 10 7 10 12 11 7 7 10 13 15 17 21 20 17 19 20 18 18 18 18 19 19 18 17 15 15 14 14 13 14 14 15 17 17 13 13 12 11 12 11 11
11 6 6 6 7 7 9 9 6 7 12 14 15 12 13 11 11 14 13 13 15 15 17 16 17 19 21 18 17 16 14 13 12 13 16 15 12 11 10 10 9 9 11 11 11 12 11 13 9 6 3 4 8 9 10 16 18 17 18 22 18 16 17 18 19 18 18 15 15 15 14 13 13 10 13 15 14 13 13 12 12 11 10 11 10 11
10 7 6 7 9 5 5 6 10 10 12 11 10 9 10 14 14 14 15 13 14 13 17 16 20 21 20 20 18 16 13 12 13 12 13 14 12 11 10 13 11 13 13 12 12 13 12 10 6 4 7 2 5 8 10 8 13 12 18 17 16 17 18 18 17 17 15 14 13 12 12 13 11 11 11 12 14 12 12 13 13 12 12 14 15 15
6 8 10 7 6 12 2 4 10 14 17 16 12 11 11 16 15 13 15 13 14 15 12 14 17 19 21 21 18 16 15 14 13 13 10 8 10 12 11 11 10 10 11 8 9 10 9 9 9 9 9 8 5 7 13 8 5 10 14 10 6 13 14 15 16 15 16 15 14 16 16 15 14 15 14 13 13 11 13 14 14 14 13 11 11 11
6 9 10 8 12 10 6 13 16 18 18 15 17 17 16 13 15 15 15 15 13 14 14 12 14 16 20 21 21 18 17 17 16 14 10 9 9 11 12 10 11 9 9 9 8 6 4 7 10 12 11 11 8 9 9 11 7 6 10 7 9 8 6 13 11 15 14 15 16 16 14 15 13 13 13 14 12 12 10 9 10 11 9 7 7 5
3 11 10 10 12 8 7 13 18 18 15 11 15 15 15 14 15 17 13 13 13 13 13 11 12 14 17 20 21 17 18 18 19 17 13 12 10 10 8 9 9 8 10 10 12 11 11 11 12 12 11 10 10 10 8 9 9 10 4 5 3 2 5 7 4 4 7 11 11 12 13 12 10 12 12 11 10 9 8 6 6 7 7 7 6 5
9 10 5 11 9 9 7 13 19 21 11 14 19 20 17 16 17 19 18 18 18 17 15 11 10 10 13 17 20 20 19 18 20 17 14 12 13 12 11 10 10 12 13 10 12 13 12 13 14 14 12 10 9 8 7 9 9 9 11 12 8 7 4 2 4 8 8 5 3 5 6 7 10 11 9 8 6 5 6 6 7 5 4 3 5 6
6 5 9 9 7 6 10 15 18 13 11 17 20 20 19 18 18 19 19 19 19 18 14 13 12 11 11 13 15 17 18 14 16 16 16 14 13 14 15 16 15 17 17 13 12 15 16 17 16 15 14 13 12 13 13 14 13 12 10 8 8 4 2 5 4 6 1 3 5 6 5 6 8 8 7 7 6 7 4 7 10 4 5 7 9 11
5 6 7 6 6 9 13 15 14 13 14 14 17 17 17 17 18 19 18 18 18 17 14 15 14 14 13 13 13 16 16 16 20 18 18 14 13 12 15 18 19 19 18 17 16 17 18 16 17 16 16 14 13 14 14 13 12 12 12 12 9 8 9 9 8 6 5 7 6 7 4 2 4 4 4 5 6 7 7 7 5 10 11 10 6 9
Wind_Direction
284 263 261 249 245 255 259 254 267 275 275 279 284 272 262 277 272 231 217 239 237 251 254 240 231 243 245 227 229 236 241 231 233 232 224 218 221 222 226 225 227 219 201 198 199 195 199 183 175 172 215 198 175 164 164 168 175 174 170 170 166 162 160 166 174 179 179 180 179 181 186 183 183 191 192 198 209 185 200 194 190 180 182 188 188 194
230 254 252 258 279 320 329 309 292 282 281 274 272 269 265 256 265 263 260 233 250 250 225 241 267 253 239 241 225 225 232 235 228 226 231 225 215 220 230 229 228 221 181 203 206 196 195 188 174 174 197 206 175 174 167 175 181 176 171 171 169 167 166 169 177 179 184 180 177 175 181 182 180 188 193 191 206 195 196 196 193 183 185 188 190 196
232 244 266 286 314 317 292 288 286 279 270 259 256 261 256 251 251 253 257 257 246 257 258 246 243 245 249 252 240 222 222 231 233 235 235 239 220 215 223 229 227 224 207 202 202 195 200 174 166 171 192 202 183 175 176 179 183 176 172 172 175 174 171 172 176 179 183 182 174 175 173 183 176 191 199 194 197 200 192 197 194 187 186 189 191 194
265 249 316 9 32 270 279 278 271 269 258 257 252 247 249 252 249 243 237 249 252 246 255 242 247 256 259 254 250 242 227 225 231 233 232 236 251 219 218 225 227 222 215 214 199 183 189 172 166 163 196 209 192 179 180 183 182 173 174 177 178 178 173 172 175 177 183 182 175 174 168 179 182 188 199 196 186 195 189 197 196 191 189 192 193 192
283 303 311 248 239 259 271 272 256 247 253 245 248 257 260 250 243 251 264 242 233 229 233 250 257 254 245 241 244 246 241 230 222 228 232 240 251 242 216 226 231 218 216 218 210 195 195 174 167 168 187 214 201 182 183 184 179 175 180 176 178 179 176 171 169 176 180 179 171 171 166 178 194 184 193 186 198 201 193 196 195 195 189 194 197 193
260 253 249 257 238 245 257 253 251 257 262 270 260 254 248 256 267 258 245 253 264 247 234 247 247 244 239 245 242 228 226 239 234 225 217 221 230 225 230 234 231 220 216 221 216 202 197 187 170 180 191 204 204 186 181 181 177 175 178 177 175 178 176 175 173 179 179 179 172 170 169 171 193 185 180 186 202 197 195 197 191 196 190 193 199 196
298 305 306 303 281 267 255 257 261 261 266 263 258 250 251 250 250 255 264 253 242 241 226 220 243 252 233 233 232 246 244 224 227 238 242 228 220 223 222 231 241 229 218 221 220 216 202 168 168 173 179 206 220 188 179 180 180 180 178 176 178 176 176 173 174 179 176 174 179 180 174 171 178 180 183 183 206 199 196 198 191 194 191 195 196 203
209 249 235 245 259 262 264 259 249 252 267 264 270 270 286 277 265 247 246 254 256 254 251 253 236 240 246 231 225 222 229 238 233 230 235 237 238 222 217 223 229 232 236 226 215 216 215 196 181 182 185 197 220 198 180 179 180 178 173 174 175 176 175 175 175 181 180 175 177 180 179 174 171 179 179 187 192 197 192 196 187 189 192 196 196 202
239 276 275 282 274 261 259 271 276 260 259 274 275 274 281 260 259 264 258 248 248 248 247 237 244 253 240 239 231 222 220 221 226 225 222 230 231 224 221 221 225 231 236 237 239 219 221 175 183 177 188 193 201 224 187 180 177 176 168 172 173 175 173 178 179 184 179 181 178 180 177 175 174 173 178 186 199 185 193 189 185 189 189 196 201 202
286 280 284 267 260 263 266 267 271 266 260 252 265 267 255 257 262 252 251 253 246 240 242 240 231 241 243 235 228 239 235 221 218 221 225 222 226 231 232 233 232 227 225 232 236 233 226 218 188 184 174 178 192 212 202 177 176 175 168 172 173 177 179 181 181 186 184 183 179 182 183 176 173 172 175 186 178 183 187 187 185 190 189 191 203 209
272 275 277 274 263 276 285 281 275 268 269 292 282 269 260 248 248 253 251 255 254 244 239 239 238 239 244 227 226 232 232 239 225 213 220 225 223 226 230 233 232 233 223 220 227 228 227 227 192 170 180 180 187 202 208 192 178 176 170 175 177 181 178 174 177 188 188 184 184 183 185 180 176 174 172 175 178 184 190 196 193 194 196 197 199 205
263 254 253 248 251 250 266 270 262 262 264 263 255 255 265 261 255 246 238 227 240 244 240 236 236 238 245 230 228 223 232 231 233 241 224 217 223 224 222 223 225 227 227 220 219 223 222 223 212 182 188 181 171 175 214 198 187 181 177 177 177 179 175 171 174 188 190 190 189 190 188 184 182 176 174 176 180 183 188 196 193 194 199 200 202 203
292 279 298 253 230 255 247 249 258 256 250 242 245 249 250 258 250 245 232 233 228 237 234 233 232 234 238 246 240 235 230 232 224 221 235 239 227 224 226 222 220 220 222 226 220 219 220 216 203 198 190 171 143 182 225 213 191 183 183 182 178 180 175 173 179 185 187 192 195 195 195 195 186 181 175 176 178 183 187 192 195 192 200 201 203 202
297 295 279 283 242 211 234 254 262 257 233 240 240 239 240 245 240 245 241 247 249 237 239 241 228 240 246 234 231 252 252 246 231 213 221 232 233 232 228 227 222 217 218 221 221 222 222 212 194 197 192 171 155 178 215 222 192 182 188 179 184 183 180 178 180 184 188 195 199 201 199 198 195 183 180 179 176 179 188 190 193 195 200 201 202 201
304 313 106 275 306 40 240 240 273 289 284 256 247 244 245 242 244 247 242 234 240 256 238 225 238 233 230 227 224 221 228 241 260 259 233 236 252 229 219 222 220 219 219 219 215 213 231 218 198 188 191 172 169 179 196 215 188 178 180 179 183 188 191 185 181 186 194 199 201 203 200 198 200 193 185 184 180 177 185 192 192 194 199 199 198 204
290 290 0 11 308 252 276 282 260 261 263 259 261 253 243 239 227 250 262 267 270 298 296 261 238 227 237 252 238 234 242 226 232 247 233 243 250 260 250 260 260 225 214 216 213 209 219 229 204 185 180 179 169 181 188 208 188 181 179 177 180 183 184 186 186 189 192 197 198 198 199 203 203 201 195 189 184 179 183 190 194 193 194 198 201 203
305 285 90 290 279 275 286 305 285 276 271 320 239 242 252 311 306 266 256 264 285 273 264 276 260 237 238 229 230 235 206 228 244 231 223 226 237 237 237 240 246 263 268 222 216 223 221 218 209 199 191 186 186 187 209 207 185 181 180 183 186 187 185 187 187 185 189 199 197 192 197 206 205 203 201 197 188 180 178 189 197 195 197 201 202 195
304 298 309 307 296 276 253 264 271 258 255 271 251 262 292 257 248 258 259 238 243 255 259 258 253 252 254 238 207 217 233 235 232 244 235 223 225 227 228 228 234 239 241 248 238 234 237 222 203 205 210 194 201 207 207 193 185 183 184 186 186 187 189 189 186 187 187 190 199 202 198 202 206 205 205 205 197 187 182 183 189 194 196 199 196 192
336 295 300 302 305 331 323 282 268 255 252 258 268 295 269 269 267 238 254 246 237 239 253 244 252 248 230 238 244 224 227 226 225 228 235 234 224 222 222 221 221 223 228 230 232 230 229 226 205 205 208 201 203 218 207 193 183 183 188 188 188 189 189 185 187 186 187 191 198 206 205 204 203 203 203 203 200 195 192 190 192 192 192 191 191 191
306 280 295 316 352 340 310 283 277 271 212 234 257 257 258 282 255 268 252 272 251 254 254 260 252 241 233 242 248 249 227 230 232 214 222 229 227 220 221 223 218 217 220 222 226 230 228 220 214 215 211 213 206 210 209 196 187 184 186 185 189 189 188 189 190 184 187 194 202 207 206 206 206 206 206 202 198 201 204 200 198 193 193 192 190 193
282 238 278 297 314 289 282 236 258 259 258 213 227 250 240 230 255 247 247 261 257 246 242 259 257 251 248 245 242 244 258 250 255 250 230 219 221 222 223 219 219 217 215 220 223 224 225 220 220 222 220 218 216 211 200 203 193 191 184 188 186 185 184 189 187 186 190 195 204 208 207 202 204 202 201 201 200 202 203 202 200 199 197 193 198 197
269 240 267 292 294 276 273 273 273 275 281 280 262 258 260 256 229 231 252 250 250 248 248 246 257 260 253 248 247 241 233 233 245 250 251 256 263 247 228 226 225 223 219 215 219 225 223 221 223 226 223 220 217 218 207 204 205 194 192 189 191 183 184 189 188 189 190 196 201 207 208 202 198 201 202 199 200 200 198 195 200 199 197 199 199 200
256 283 273 278 279 279 285 283 277 252 248 254 263 261 245 248 264 241 248 243 238 236 252 260 272 264 276 285 289 304 310 287 279 275 247 234 234 229 226 221 215 219 222 220 222 221 222 224 220 219 221 219 219 218 210 202 207 205 193 189 190 188 188 193 194 193 190 194 200 205 206 198 200 200 199 202 201 203 202 190 196 198 200 200 197 199
119 247 267 274 288 279 269 263 252 246 241 245 241 257 267 256 236 247 255 274 283 280 247 240 246 264 253 252 267 278 272 270 284 291 294 285 286 288 278 283 274 268 256 251 236 233 234 227 222 220 216 216 216 214 216 201 196 194 197 194 194 192 189 190 192 192 191 192 198 200 200 198 200 201 200 202 200 202 205 191 193 200 201 199 197 199
256 183 250 297 304 307 313 271 271 226 232 243 251 244 251 259 262 253 254 248 257 246 253 251 251 248 247 276 294 289 286 273 282 295 294 280 269 262 264 253 248 248 240 234 235 229 226 239 240 230 226 221 217 212 208 216 197 196 191 200 201 204 194 189 187 190 192 192 192 192 195 197 198 203 203 204 201 203 201 194 194 197 200 198 200 200
251 272 268 290 299 307 315 307 323 307 278 278 248 251 248 256 254 256 241 227 241 242 242 243 252 253 256 251 251 252 252 264 271 270 271 277 265 252 248 253 250 247 246 241 237 229 222 219 228 232 230 229 227 223 212 208 200 204 202 194 188 207 203 192 186 189 190 190 190 190 193 198 202 205 206 205 204 200 194 193 198 199 201 202 201 197
268 252 235 249 261 272 276 285 286 289 283 273 272 250 249 238 244 250 261 257 244 245 241 242 253 265 261 253 262 277 280 270 265 257 262 277 261 241 255 265 254 255 270 254 242 238 225 221 224 228 229 229 231 229 229 217 204 198 195 187 192 199 213 201 188 188 189 188 189 189 191 196 200 202 204 203 202 197 194 197 201 202 202 202 202 200
245 268 248 240 245 250 255 263 275 281 286 289 282 274 261 249 237 240 245 249 262 278 264 258 262 268 267 265 253 243 241 247 252 250 249 250 264 261 319 314 290 270 260 263 241 227 229 228 227 229 231 227 223 226 230 231 223 196 187 190 197 200 207 207 191 187 187 188 187 190 191 195 197 200 201 201 202 197 193 195 199 203 204 202 205 203
281 279 274 271 264 250 253 256 265 273 273 277 282 277 272 264 249 237 238 250 262 259 265 276 281 279 289 293 304 315 305 293 270 252 236 242 262 275 255 266 285 269 253 269 272 249 235 226 228 230 230 229 225 221 223 227 228 217 194 194 193 196 205 213 201 190 188 190 190 190 189 190 194 199 200 200 201 200 194 192 199 205 203 200 209 207
278 258 272 280 288 287 280 279 272 274 278 276 273 272 261 258 254 252 253 247 244 251 261 271 276 276 281 283 291 284 280 268 271 246 247 249 252 258 279 278 267 263 269 278 286 269 234 230 232 234 232 230 231 226 221 220 226 224 207 189 190 194 203 218 208 191 188 187 188 186 187 188 187 193 196 197 199 200 196 193 191 201 203 200 208 208
245 290 313 300 301 291 283 277 276 275 274 280 285 276 260 256 258 257 260 258 257 255 256 260 267 272 271 276 273 270 270 263 268 264 242 257 267 271 276 280 277 277 277 277 273 275 258 242 239 238 244 243 232 230 227 225 221 224 221 188 181 197 200 207 215 196 189 188 185 186 186 184 186 191 193 195 197 192 194 196 188 196 205 204 207 208
289 276 307 301 311 296 323 330 291 250 265 280 292 299 285 273 266 266 262 263 262 263 261 261 261 261 269 261 285 298 276 272 264 266 323 317 298 288 287 282 279 276 280 279 273 269 257 253 243 239 243 252 254 236 230 231 224 220 223 215 196 187 188 205 221 208 192 189 188 187 186 183 184 187 189 191 194 191 196 195 185 194 200 202 205 207
292 297 311 316 315 293 321 331 315 303 278 277 354 353 342 326 317 302 284 277 271 300 293 272 267 275 281 275 245 236 260 284 282 301 280 276 287 289 284 283 280 276 276 279 273 284 280 259 252 255 263 260 257 252 238 231 231 226 221 221 215 199 185 200 214 208 194 191 190 187 183 183 183 184 186 190 194 194 194 195 185 192 195 199 200 204
296 298 299 307 304 301 317 327 311 305 27 9 340 325 324 339 335 312 292 295 300 296 278 289 291 296 294 291 287 296 283 276 286 277 277 280 284 280 278 278 276 276 281 275 274 282 287 276 267 265 274 278 273 268 257 239 232 231 224 222 217 204 192 204 212 209 194 192 191 186 184 185 183 184 186 191 194 191 193 194 185 191 197 195 194 204
298 306 299 314 287 305 312 315 319 30 10 324 319 315 313 324 323 315 296 281 282 288 287 288 290 292 290 284 279 288 298 300 320 315 295 277 258 266 277 278 272 269 279 282 281 287 289 291 285 278 272 270 268 263 262 250 232 231 229 220 217 212 206 202 212 217 197 191 189 185 185 184 183 182 185 191 193 191 195 192 184 190 188 194 198 203
291 303 314 307 307 300 322 341 353 0 218 288 283 303 313 304 303 325 307 271 262 269 280 281 284 292 287 272 268 274 273 287 294 278 274 271 265 270 272 267 270 271 270 275 280 274 278 278 274 271 273 273 269 261 251 245 237 230 229 223 217 212 202 195 211 213 194 190 185 183 182 183 183 183 183 188 190 190 195 190 188 190 191 193 201 201
254 279 313 312 321 325 319 314 312 212 177 219 300 334 332 310 311 313 311 303 327 302 287 275 295 307 308 302 297 300 300 296 283 276 272 286 279 256 242 252 282 286 285 278 270 258 241 245 259 265 272 271 267 260 249 242 233 230 225 223 219 212 207 203 206 201 194 186 182 183 182 182 181 183 186 187 187 189 189 187 188 184 188 196 197 192
302 302 336 315 308 297 323 337 348 1 7 356 338 325 328 307 287 274 254 297 342 331 316 313 312 324 325 317 305 308 315 305 285 272 326 49 309 321 289 278 277 280 280 277 274 267 263 264 271 272 270 270 263 262 258 240 229 230 225 220 217 212 207 204 200 197 191 185 182 181 180 179 177 180 185 190 194 195 191 181 181 188 192 198 196 193
354 337 287 241 314 343 350 352 4 350 32 355 326 336 331 337 336 340 170 267 350 337 334 323 314 307 302 297 302 298 285 264 265 266 234 243 256 290 295 291 285 289 279 266 266 270 280 288 284 283 278 270 263 255 261 245 227 227 223 217 214 210 206 201 200 195 190 186 184 181 179 177 179 183 190 195 197 192 182 177 187 195 195 201 200 189
2 353 340 2 2 4 351 1 5 20 346 349 347 339 331 323 329 293 322 346 335 319 316 313 292 286 274 273 276 275 262 269 265 280 302 304 303 297 296 292 285 275 273 279 276 293 298 286 279 270 263 262 261 261 265 243 226 227 222 215 211 208 204 200 199 193 190 186 181 181 179 179 182 184 189 194 187 176 176 182 191 193 192 192 197 191
1 353 359 3 1 357 1 2 7 78 206 353 356 334 328 317 302 350 5 318 311 310 317 327 337 337 328 316 294 282 266 265 280 290 290 293 297 297 293 293 291 285 292 292 301 305 290 291 286 278 277 274 277 278 270 235 224 222 218 214 208 207 202 197 192 194 203 193 183 180 182 182 185 188 186 182 177 173 182 189 195 193 190 194 197 191
9 345 4 357 359 359 1 2 354 352 60 354 347 336 329 314 16 346 323 313 321 340 337 332 352 355 342 317 312 295 289 282 287 293 298 307 305 296 302 298 298 308 298 286 296 307 304 301 296 283 279 288 294 290 263 231 222 217 211 209 209 205 200 195 193 192 192 192 183 181 182 181 186 183 171 171 175 181 190 195 197 194 187 190 182 188
358 343 358 357 345 337 7 353 351 360 6 0 340 309 16 18 338 318 324 337 347 345 346 341 353 349 345 346 336 331 323 322 313 309 310 308 312 332 311 292 294 287 289 313 323 318 328 313 295 286 313 348 343 339 308 251 223 216 207 207 201 199 197 194 192 193 191 187 183 180 181 180 183 179 180 178 186 189 192 191 193 188 181 184 185 193
6 1 353 349 8 330 356 3 3 346 331 348 355 3 341 337 322 332 340 347 348 351 348 352 357 354 355 355 343 340 335 333 329 327 324 326 331 334 314 307 323 322 329 330 327 326 336 312 280 297 11 33 339 332 0 321 256 224 211 201 195 194 191 189 190 191 188 181 178 177 173 175 175 168 182 185 184 187 185 185 186 180 177 180 186 195
14 4 339 320 320 330 349 343 349 348 344 350 344 345 334 326 334 342 341 343 346 354 354 0 354 350 349 352 347 344 338 341 329 330 331 333 335 334 326 342 346 340 341 338 332 340 340 318 297 64 74 58 323 3 352 359 321 264 209 199 195 191 187 186 186 181 174 164 169 164 164 169 170 174 180 184 183 180 184 185 188 190 190 188 194 202
3 357 330 304 354 333 163 262 359 353 347 343 349 351 352 338 334 345 341 343 350 349 359 4 354 354 348 348 351 348 353 352 350 349 350 352 0 357 355 4 357 344 330 347 3 344 322 329 334 66 69 61 49 12 27 17 329 343 326 308 236 187 183 181 176 175 171 168 167 173 175 177 179 185 188 187 190 189 194 194 193 200 199 197 197 197
346 6 335 352 332 327 20 4 3 352 340 347 351 351 350 350 338 339 342 340 338 340 345 3 6 1 352 345 353 351 1 4 359 352 1 18 25 17 10 3 6 345 358 12 358 317 340 31 17 23 50 68 62 59 34 52 58 318 291 290 313 317 230 183 173 169 173 169 171 172 175 173 178 180 185 192 190 193 195 197 197 199 199 190 185 171
355 355 321 356 330 348 5 11 355 342 332 342 352 351 350 347 336 333 337 333 335 335 336 340 2 8 4 353 349 0 6 7 9 359 358 9 19 30 12 13 12 0 10 6 11 8 20 30 47 34 25 29 45 56 62 62 45 25 26 273 236 207 358 20 338 311 174 166 164 168 175 172 156 172 181 182 181 186 183 165 159 184 184 193 183 161
306 299 354 337 322 320 359 6 351 334 331 343 349 350 348 347 344 337 339 342 345 345 339 341 360 4 5 359 351 1 5 7 8 1 353 7 14 12 9 22 24 30 30 25 23 20 22 29 32 32 30 29 36 51 47 52 53 61 45 13 27 44 87 55 123 183 234 152 219 173 172 162 165 177 167 157 151 135 153 158 169 142 123 171 183 160
328 358 341 332 334 342 359 342 344 344 331 332 341 344 346 347 345 340 337 341 342 341 342 4 1 6 7 1 0 2 8 359 6 1 0 3 13 18 17 19 24 26 26 21 28 30 23 22 32 36 28 26 26 36 33 34 29 31 38 38 35 51 97 144 180 142 141 150 170 151 158 148 159 165 150 154 163 162 131 65 58 50 189 188 192 185
350 347 339 339 331 316 327 331 338 330 321 331 334 342 343 347 341 343 347 350 345 349 356 14 15 15 12 8 6 7 8 4 2 1 9 8 2 16 23 19 23 29 22 19 26 30 27 19 22 29 29 27 28 32 31 31 32 31 31 21 19 36 41 23 20 34 66 63 40 17 23 126 149 158 165 172 165 174 166 172 119 62 52 31 344 212